Regional Weather Roundup
Issued by NWS Sterling, VA

Home | Current Version | Previous Version | Text Only | Print | Product List | Glossary Off
Versions: 1 2 3 4 5 6 7 8 9 10 11 12 13 14 15 16 17 18 19 20 21 22 23 24 25 26 27 28 29 30 31 32 33 34 35 36 37 38 39 40 41 42 43 44 45 46 47 48 49 50

000
ASUS41 KLWX 191910
RWRLWX

REGIONAL WEATHER ROUNDUP
NATIONAL WEATHER SERVICE BALTIMORE MD/WASHINGTON DC
200 PM EST THU JAN 19 2017

Note: "FAIR" indicates few or no clouds below 12,000 feet
with no significant weather and/or obstructions to visibility.
 TC=TEMPERATURE CELSIUS

 * =Non NWS site. Station does not report precipitation (e.g. rain,
    snow, etc.), thunder, or fog.

DCZ001-MDZ009-015-VAZ040>042-051-053>054-192000-
WASHINGTON METRO

CITY           SKY/WX    TMP DP  RH WIND       PRES   REMARKS
WASHINGTON NAT CLOUDY    52  38  58 VRB6      30.03F
DULLES         CLOUDY    51  36  56 N6        30.02F
ANDREWS AFB    CLOUDY    49  36  61 N5        30.01F
FT BELVOIR     PTSUNNY   52  37  57 CALM      30.02F
QUANTICO       CLOUDY    47  41  80 S6        30.04F
COLLEGE PARK*  MOSUNNY   48  34  57 N3        30.03F
LEESBURG*      MOSUNNY   52  39  62 N5        30.02F
MANASSAS*        N/A    N/A N/A N/A CALM      30.03F
GAITHERSBURG*  MOSUNNY   48  34  57 NW5       30.06F

$$

MDZ006>007-011-014-192000-
BALTIMORE METRO

CITY           SKY/WX    TMP DP  RH WIND       PRES   REMARKS
BWI AIRPORT    PTSUNNY   50  36  58 NW7       30.01F
MD SCIENCE CTR   N/A     51  34  52 MISG      30.04F
MARTIN STATE   MOSUNNY   52  37  58 SW3       30.04F
ANNAPOLIS      CLOUDY    49  36  61 N3        30.02F
FORT MEADE*    MOSUNNY   50  36  57 CALM      30.04F

$$

MDZ012-015-019>023-192000-
MARYLAND EASTERN SHORE

CITY           SKY/WX    TMP DP  RH WIND       PRES   REMARKS
OCEAN CITY     CLOUDY    46  39  76 E7        30.04S
SALISBURY      CLOUDY    50  37  61 NW6       30.03F
BAY BRIDGE AP* MOSUNNY   50  36  57 CALM      30.02F
CAMBRIDGE*     CLOUDY    46  34  61 NW6       30.02F
EASTON*        MOSUNNY   50  36  57 W3        30.07F

$$

MDZ017>025-192000-
SOUTHERN MARYLAND

CITY           SKY/WX    TMP DP  RH WIND       PRES   REMARKS
PATUXENT RIVER PTSUNNY   49  37  63 NE8       30.02F
ST INIGOES     CLOUDY    50  37  61 W5        30.02F
LEONARDTOWN*   MOSUNNY   50  36  57 W5        30.02F

$$

MDZ003>005-192000-
NORTH CENTRAL MARYLAND

CITY           SKY/WX    TMP DP  RH WIND       PRES   REMARKS
FREDERICK*     SUNNY     48  37  66 CALM      30.06F
HAGERSTOWN APT MOSUNNY   48  34  58 CALM      30.01F
WESTMINSTER*   MOSUNNY   46  36  66 NW3       30.01F

$$

MDZ501>502-192000-
WESTERN MARYLAND

CITY           SKY/WX    TMP DP  RH WIND       PRES   REMARKS
OAKLAND*       CLOUDY    37  36  93 SW5       29.96F
CUMBERLAND*    CLOUDY    50  36  57 E5        30.04F

$$

VAZ025>031-192000-
SHENANDOAH VALLEY

CITY           SKY/WX    TMP DP  RH WIND       PRES   REMARKS
WINCHESTER*    CLOUDY    46  36  66 CALM      30.01F
FRONT ROYAL*   CLOUDY    50  37  62 CALM      30.00F
LURAY*         CLOUDY    50  41  71 CALM      30.01S
NEW MARKET*    CLOUDY    49  37  64 CALM      30.01S
STAUNTON*      CLOUDY    49  38  65 CALM      30.03R
WAYNESBORO*    CLOUDY    53  37  54 W3        30.00S

$$

WVZ021-048>050-054>055-192000-
EASTERN WEST VIRGINIA PANHANDLE

CITY           SKY/WX    TMP DP  RH WIND       PRES   REMARKS
MARTINSBURG    MOSUNNY   50  34  54 N3        30.01F
PETERSBURG*    CLOUDY    48  38  67 CALM      30.02S

$$

VAZ036>039-050-192000-
CENTRAL FOOTHILLS

CITY           SKY/WX    TMP DP  RH WIND       PRES   REMARKS
CHARLOTTESVILL CLOUDY    54  38  54 VRB3      30.01F
CULPEPER*      CLOUDY    52  39  61 W3        30.03F
ORANGE*          N/A     54  37  54 CALM      30.03F
GORDONSVILLE*  CLOUDY    52  39  61 S5        30.00F
WARRENTON*     CLOUDY    51  35  53 E5        30.01F

$$

VAZ055>057-192000-
NORTH AND CENTRAL PIEDMONT

CITY           SKY/WX    TMP DP  RH WIND       PRES   REMARKS
FREDERICKSBRG* MOSUNNY   53  40  61 NW3       30.02F
STAFFORD*      MOSUNNY   51  38  61 CALM      30.06F

$$

NCZ024-NYZ072-PAZ021-071-VAZ022-071-192000-
OTHER REGIONAL OBSERVATIONS

CITY           SKY/WX    TMP DP  RH WIND       PRES   REMARKS
NEW YORK CITY  CLOUDY    45  34  65 NW8       30.02S
PHILADELPHIA   CLOUDY    48  35  60 N12       30.03S
PITTSBURGH     CLOUDY    40  35  83 SE6       30.01F
ROANOKE        CLOUDY    57  38  48 SE3       30.03S
RICHMOND       CLOUDY    53  38  56 CALM      30.02F
RALEIGH        MOSUNNY   60  38  43 S5        30.03F

$$

ANZ530>537-192000-
MARINE OBSERVATIONS

STATION/POSITION TIME  TEMP    WIND        PRES
                       AIR SEA DIR/SP/G
                 (UTC) (F)     (DEG/KT/KT) (MB)
THOMAS PT LIGHT  1900   45 40  110/  6/  6   N/A
BALT KEY BRIDGE  1836   48     270/  4/  5 1017.0F
COVE POINT       1836   44      40/  7/  8 1018.0F
LEWISETTA        1836   48 44   10/  5/  6 1016.9F
SOLOMONS ISLAND  1836   48 41  350/  6/  7   N/A
PINEY POINT      1848          340/  4/  4   N/A

$$




USA.gov is the U.S. government's official web portal to all federal, state and local government web resources and services.